CMP1852 TNCC-MMUN

Flight info

Callsign CMP1852
Flight time 3h 11m
Altitude 34000
Route ABIN1K AMBIN UL332 MLY UR640 FROST/N0465F360 UR640 MAMBI UL577 ILUBA ILUBA1E
Aircraft B738/M-SDE2E3FGHIRWXY/LB1

Departure

Time 2026-04-29 20:59
Airport Hato International Airport (TNCC)

Arrival

Time 2026-04-30 00:10
Airport Cancún International Airport (MMUN)
Time Latitude Longitude Altitude Speed Heading
2026-04-29 20:48 12.18561 -68.95666 42 ft 0 kts 275°
2026-04-29 20:48 12.18590 -68.95584 42 ft 0 kts 275°
2026-04-29 20:49 12.18585 -68.95609 42 ft 7 kts 238°
2026-04-29 20:49 12.18550 -68.95628 42 ft 4 kts 192°
2026-04-29 20:49 12.18546 -68.95628 42 ft 0 kts 192°
2026-04-29 20:54 12.18581 -68.95622 42 ft 3 kts 191°
2026-04-29 20:54 12.18592 -68.95619 42 ft 0 kts 191°
2026-04-29 20:54 12.18587 -68.95620 42 ft 0 kts 200°
2026-04-29 20:55 12.18591 -68.95618 42 ft 1 kts 277°
2026-04-29 20:56 12.18615 -68.95651 42 ft 15 kts 307°
2026-04-29 20:56 12.18675 -68.95802 42 ft 27 kts 283°
2026-04-29 20:56 12.18722 -68.96008 42 ft 31 kts 279°
2026-04-29 20:56 12.18771 -68.96252 43 ft 40 kts 281°
2026-04-29 20:57 12.18839 -68.96577 43 ft 53 kts 281°
2026-04-29 20:57 12.18920 -68.96963 42 ft 53 kts 282°
2026-04-29 20:57 12.18997 -68.97329 41 ft 52 kts 283°
2026-04-29 20:57 12.19112 -68.97583 41 ft 30 kts 12°
2026-04-29 20:58 12.19193 -68.97474 41 ft 14 kts 66°
2026-04-29 20:58 12.19189 -68.97380 41 ft 0 kts 102°
2026-04-29 20:58 12.19187 -68.97372 41 ft 6 kts 102°
2026-04-29 20:58 12.19116 -68.97021 41 ft 91 kts 101°
2026-04-29 20:59 12.18942 -68.96151 79 ft 155 kts 104°
2026-04-29 20:59 12.18643 -68.95070 857 ft 156 kts 104°
2026-04-29 20:59 12.18342 -68.94192 1990 ft 133 kts 105°
2026-04-29 20:59 12.17990 -68.93209 2396 ft 156 kts 99°
2026-04-29 21:00 12.17939 -68.92032 2607 ft 178 kts 89°
2026-04-29 21:00 12.17820 -68.90708 2535 ft 195 kts 97°
2026-04-29 21:00 12.17540 -68.89348 2509 ft 196 kts 97°
2026-04-29 21:00 12.17675 -68.87985 2506 ft 196 kts 66°
2026-04-29 21:01 12.18576 -68.86880 2677 ft 214 kts 41°
2026-04-29 21:01 12.19888 -68.86096 3266 ft 229 kts 27°
2026-04-29 21:01 12.21438 -68.85564 3853 ft 244 kts 20°
2026-04-29 21:01 12.23105 -68.85102 4601 ft 249 kts 19°
2026-04-29 21:02 12.24766 -68.84623 5353 ft 252 kts 20°
2026-04-29 21:02 12.26462 -68.84105 6082 ft 257 kts 20°
2026-04-29 21:02 12.28182 -68.83566 6826 ft 260 kts 20°
2026-04-29 21:02 12.29977 -68.83260 7535 ft 269 kts 360°
2026-04-29 21:03 12.31759 -68.83869 8184 ft 280 kts 326°
2026-04-29 21:03 12.33100 -68.85320 8859 ft 286 kts 306°
2026-04-29 21:03 12.34220 -68.87054 9353 ft 299 kts 303°
2026-04-29 21:03 12.35361 -68.88889 9810 ft 313 kts 303°
2026-04-29 21:04 12.36570 -68.90775 10367 ft 323 kts 304°
2026-04-29 21:04 12.37864 -68.92734 10805 ft 338 kts 304°
2026-04-29 21:04 12.39209 -68.94741 11187 ft 353 kts 304°
2026-04-29 21:04 12.40621 -68.96837 11794 ft 359 kts 304°
2026-04-29 21:05 12.42029 -68.98927 12556 ft 359 kts 304°
2026-04-29 21:05 12.43458 -69.01054 13206 ft 363 kts 304°
2026-04-29 21:05 12.44868 -69.03156 13855 ft 366 kts 303°
2026-04-29 21:05 12.46302 -69.05296 14493 ft 369 kts 303°
2026-04-29 21:06 12.47763 -69.07477 15156 ft 370 kts 303°
2026-04-29 21:06 12.49225 -69.09660 15755 ft 373 kts 303°
2026-04-29 21:06 12.50704 -69.11868 16352 ft 376 kts 303°
2026-04-29 21:06 12.52181 -69.14075 16924 ft 378 kts 302°
2026-04-29 21:07 12.53677 -69.16311 17448 ft 382 kts 302°
2026-04-29 21:07 12.55175 -69.18552 17997 ft 385 kts 302°
2026-04-29 21:07 12.56659 -69.20770 18511 ft 388 kts 303°
2026-04-29 21:07 12.58206 -69.23083 19056 ft 390 kts 302°
2026-04-29 21:08 12.59722 -69.25349 19593 ft 392 kts 302°
2026-04-29 21:08 12.61285 -69.27683 20104 ft 394 kts 303°
2026-04-29 21:08 12.62831 -69.29993 20614 ft 396 kts 303°
2026-04-29 21:08 12.64388 -69.32321 21106 ft 399 kts 302°
2026-04-29 21:09 12.65901 -69.34585 21562 ft 401 kts 303°
2026-04-29 21:09 12.67494 -69.36969 22044 ft 403 kts 302°
2026-04-29 21:09 12.69071 -69.39330 22519 ft 405 kts 302°
2026-04-29 21:09 12.70650 -69.41694 23003 ft 406 kts 302°
2026-04-29 21:10 12.72246 -69.44083 23465 ft 408 kts 302°
2026-04-29 21:10 12.73865 -69.46510 23960 ft 408 kts 302°
2026-04-29 21:10 12.75462 -69.48904 24412 ft 410 kts 302°
2026-04-29 21:10 12.77080 -69.51330 24884 ft 411 kts 302°
2026-04-29 21:11 12.78681 -69.53732 25331 ft 412 kts 302°
2026-04-29 21:11 12.80309 -69.56175 25825 ft 412 kts 303°
2026-04-29 21:11 12.81851 -69.58489 26162 ft 415 kts 303°
2026-04-29 21:11 12.83546 -69.61035 26599 ft 416 kts 303°
2026-04-29 21:12 12.85162 -69.63463 26988 ft 417 kts 303°
2026-04-29 21:12 12.86777 -69.65888 27444 ft 416 kts 302°
2026-04-29 21:12 12.88425 -69.68363 27836 ft 418 kts 302°
2026-04-29 21:12 12.90064 -69.70827 28195 ft 420 kts 302°
2026-04-29 21:13 12.91697 -69.73282 28601 ft 420 kts 302°
2026-04-29 21:13 12.93346 -69.75761 28958 ft 421 kts 302°
2026-04-29 21:13 12.95005 -69.78256 29329 ft 422 kts 302°
2026-04-29 21:13 12.96672 -69.80765 29624 ft 425 kts 302°
2026-04-29 21:14 12.98338 -69.83273 30016 ft 425 kts 302°
2026-04-29 21:14 12.99991 -69.85759 30612 ft 420 kts 302°
2026-04-29 21:14 13.01622 -69.88214 31045 ft 418 kts 302°
2026-04-29 21:14 13.03241 -69.90652 31483 ft 416 kts 301°
2026-04-29 21:15 13.04871 -69.93108 31879 ft 415 kts 301°
2026-04-29 21:15 13.06495 -69.95557 32302 ft 412 kts 301°
2026-04-29 21:15 13.08046 -69.97896 32660 ft 411 kts 301°
2026-04-29 21:15 13.09641 -70.00300 33130 ft 409 kts 301°
2026-04-29 21:16 13.11216 -70.02678 33445 ft 409 kts 300°
2026-04-29 21:16 13.12772 -70.05027 33808 ft 408 kts 300°
2026-04-29 21:16 13.14355 -70.07418 33826 ft 411 kts 301°
2026-04-29 21:17 13.17497 -70.12163 33824 ft 407 kts 300°
2026-04-29 21:17 13.20021 -70.15975 33826 ft 406 kts 300°
2026-04-29 21:18 13.22862 -70.20274 33829 ft 406 kts 300°
2026-04-29 21:18 13.26034 -70.25073 33828 ft 408 kts 300°
2026-04-29 21:19 13.29188 -70.29840 33833 ft 403 kts 300°
2026-04-29 21:19 13.32345 -70.34616 33838 ft 406 kts 300°
2026-04-29 21:20 13.35488 -70.39378 33836 ft 405 kts 300°
2026-04-29 21:20 13.38586 -70.44070 33838 ft 403 kts 300°
2026-04-29 21:21 13.41703 -70.48800 33840 ft 404 kts 300°
2026-04-29 21:21 13.44852 -70.53581 33839 ft 403 kts 300°
2026-04-29 21:22 13.47995 -70.58350 33837 ft 403 kts 300°
2026-04-29 21:22 13.51128 -70.63106 33836 ft 403 kts 300°
2026-04-29 21:23 13.54268 -70.67878 33836 ft 402 kts 300°
2026-04-29 21:23 13.57382 -70.72610 33836 ft 403 kts 300°
2026-04-29 21:24 13.60510 -70.77366 33836 ft 403 kts 299°
2026-04-29 21:24 13.63645 -70.82137 33836 ft 401 kts 300°
2026-04-29 21:25 13.66669 -70.86741 33836 ft 400 kts 299°
2026-04-29 21:25 13.69775 -70.91475 33838 ft 401 kts 299°
2026-04-29 21:26 13.72872 -70.96200 33837 ft 402 kts 299°
2026-04-29 21:26 13.75978 -71.00937 33836 ft 402 kts 299°
2026-04-29 21:27 13.79106 -71.05709 33839 ft 402 kts 299°
2026-04-29 21:27 13.82220 -71.10458 33841 ft 400 kts 299°
2026-04-29 21:28 13.85328 -71.15206 33842 ft 401 kts 299°
2026-04-29 21:28 13.88448 -71.19977 33842 ft 400 kts 299°
2026-04-29 21:29 13.91517 -71.24675 33842 ft 399 kts 299°
2026-04-29 21:29 13.94560 -71.29330 33842 ft 400 kts 298°
2026-04-29 21:30 13.97588 -71.33968 33842 ft 399 kts 299°
2026-04-29 21:30 14.00635 -71.38636 33840 ft 399 kts 299°
2026-04-29 21:31 14.03690 -71.43316 33842 ft 398 kts 298°
2026-04-29 21:31 14.06778 -71.48051 33828 ft 398 kts 299°
2026-04-29 21:32 14.09821 -71.52720 33826 ft 397 kts 298°
2026-04-29 21:32 14.12906 -71.57461 33831 ft 400 kts 298°
2026-04-29 21:33 14.15994 -71.62209 33836 ft 398 kts 298°
2026-04-29 21:33 14.19061 -71.66924 33840 ft 399 kts 298°
2026-04-29 21:34 14.22158 -71.71687 33842 ft 398 kts 298°
2026-04-29 21:34 14.25224 -71.76408 33842 ft 398 kts 298°
2026-04-29 21:35 14.28291 -71.81130 33843 ft 398 kts 298°
2026-04-29 21:35 14.31354 -71.85848 33842 ft 400 kts 298°
2026-04-29 21:36 14.34415 -71.90565 33842 ft 398 kts 298°
2026-04-29 21:36 14.37503 -71.95326 33843 ft 397 kts 298°
2026-04-29 21:37 14.40555 -72.00037 33845 ft 398 kts 298°
2026-04-29 21:37 14.43651 -72.04820 33848 ft 398 kts 298°
2026-04-29 21:38 14.46730 -72.09578 33851 ft 400 kts 298°
2026-04-29 21:38 14.49795 -72.14319 33853 ft 399 kts 298°
2026-04-29 21:39 14.52875 -72.19085 33854 ft 398 kts 298°
2026-04-29 21:39 14.55944 -72.23835 33855 ft 397 kts 298°
2026-04-29 21:40 14.59019 -72.28598 33855 ft 398 kts 298°
2026-04-29 21:40 14.62085 -72.33348 33857 ft 397 kts 298°
2026-04-29 21:41 14.65141 -72.38087 33855 ft 397 kts 298°
2026-04-29 21:41 14.68212 -72.42853 33858 ft 399 kts 297°
2026-04-29 21:42 14.71295 -72.47638 33858 ft 397 kts 297°
2026-04-29 21:42 14.74357 -72.52396 33857 ft 398 kts 297°
2026-04-29 21:43 14.77423 -72.57162 33858 ft 398 kts 297°
2026-04-29 21:43 14.80460 -72.61885 33858 ft 397 kts 297°
2026-04-29 21:44 14.83535 -72.66672 33859 ft 399 kts 297°
2026-04-29 21:44 14.86609 -72.71458 33860 ft 397 kts 297°
2026-04-29 21:45 14.89648 -72.76193 33861 ft 397 kts 297°
2026-04-29 21:45 14.92711 -72.80971 33861 ft 398 kts 297°
2026-04-29 21:46 14.95767 -72.85740 33863 ft 399 kts 297°
2026-04-29 21:46 14.98848 -72.90545 33862 ft 398 kts 297°
2026-04-29 21:47 15.01913 -72.95330 33862 ft 399 kts 297°
2026-04-29 21:47 15.04946 -73.00069 33865 ft 397 kts 297°
2026-04-29 21:48 15.07992 -73.04836 33864 ft 398 kts 297°
2026-04-29 21:48 15.11033 -73.09596 33865 ft 397 kts 297°
2026-04-29 21:49 15.14069 -73.14351 33867 ft 396 kts 297°
2026-04-29 21:49 15.17120 -73.19134 33866 ft 398 kts 297°
2026-04-29 21:50 15.20180 -73.23930 33862 ft 398 kts 297°
2026-04-29 21:50 15.23225 -73.28705 33856 ft 398 kts 297°
2026-04-29 21:51 15.26278 -73.33498 33858 ft 398 kts 297°
2026-04-29 21:51 15.30846 -73.40672 33852 ft 396 kts 297°
2026-04-29 21:52 15.33868 -73.45424 33853 ft 399 kts 297°
2026-04-29 21:52 15.36905 -73.50201 33858 ft 396 kts 297°
2026-04-29 21:53 15.39960 -73.55012 33864 ft 399 kts 297°
2026-04-29 21:53 15.43001 -73.59799 33864 ft 397 kts 297°
2026-04-29 21:54 15.46041 -73.64591 33869 ft 398 kts 296°
2026-04-29 21:54 15.49074 -73.69376 33872 ft 399 kts 296°
2026-04-29 21:55 15.52111 -73.74171 33868 ft 398 kts 296°
2026-04-29 21:55 15.55118 -73.78919 33864 ft 398 kts 296°
2026-04-29 21:56 15.58165 -73.83733 33864 ft 399 kts 296°
2026-04-29 21:56 15.61199 -73.88528 33863 ft 398 kts 296°
2026-04-29 21:57 15.64239 -73.93332 33863 ft 397 kts 297°
2026-04-29 21:57 15.67274 -73.98135 33863 ft 398 kts 297°
2026-04-29 21:58 15.70586 -74.02766 33871 ft 403 kts 302°
2026-04-29 21:58 15.74247 -74.07200 33878 ft 404 kts 303°
2026-04-29 21:59 15.77940 -74.11593 33879 ft 404 kts 303°
2026-04-29 21:59 15.81641 -74.16038 33879 ft 405 kts 303°
2026-04-29 22:00 15.85310 -74.20476 33879 ft 404 kts 303°
2026-04-29 22:00 15.88960 -74.24908 33881 ft 405 kts 303°
2026-04-29 22:01 15.92617 -74.29356 33884 ft 404 kts 303°
2026-04-29 22:01 15.96285 -74.33825 33883 ft 405 kts 303°
2026-04-29 22:02 15.99947 -74.38286 33883 ft 405 kts 303°
2026-04-29 22:02 16.03581 -74.42715 33884 ft 405 kts 303°
2026-04-29 22:03 16.07260 -74.47206 33883 ft 405 kts 303°
2026-04-29 22:03 16.10922 -74.51678 33884 ft 406 kts 303°
2026-04-29 22:04 16.14570 -74.56134 33886 ft 406 kts 303°
2026-04-29 22:04 16.18226 -74.60603 33886 ft 406 kts 303°
2026-04-29 22:05 16.21883 -74.65075 33887 ft 406 kts 303°
2026-04-29 22:06 16.27347 -74.71764 33887 ft 405 kts 303°
2026-04-29 22:06 16.30989 -74.76227 33888 ft 404 kts 303°
2026-04-29 22:07 16.34640 -74.80701 33891 ft 403 kts 303°
2026-04-29 22:07 16.38270 -74.85154 33893 ft 403 kts 303°
2026-04-29 22:08 16.41838 -74.89535 33893 ft 404 kts 303°
2026-04-29 22:08 16.45485 -74.94017 33893 ft 405 kts 303°
2026-04-29 22:09 16.49133 -74.98497 33894 ft 405 kts 303°
2026-04-29 22:09 16.52800 -75.03006 33897 ft 405 kts 303°
2026-04-29 22:10 16.56472 -75.07523 33894 ft 405 kts 303°
2026-04-29 22:10 16.60124 -75.12019 33898 ft 405 kts 303°
2026-04-29 22:11 16.63785 -75.16531 33896 ft 405 kts 303°
2026-04-29 22:11 16.67433 -75.21032 33897 ft 406 kts 303°
2026-04-29 22:12 16.71085 -75.25536 33899 ft 404 kts 303°
2026-04-29 22:12 16.74707 -75.30006 33901 ft 404 kts 303°
2026-04-29 22:13 16.78358 -75.34515 33901 ft 404 kts 303°
2026-04-29 22:13 16.81972 -75.38982 33902 ft 404 kts 303°
2026-04-29 22:14 16.85615 -75.43490 33903 ft 404 kts 303°
2026-04-29 22:14 16.89232 -75.47965 33903 ft 403 kts 302°
2026-04-29 22:15 16.92823 -75.52414 33905 ft 403 kts 302°
2026-04-29 22:15 16.96459 -75.56923 33903 ft 402 kts 303°
2026-04-29 22:16 17.00057 -75.61385 33906 ft 403 kts 302°
2026-04-29 22:16 17.03661 -75.65857 33906 ft 404 kts 302°
2026-04-29 22:17 17.07284 -75.70354 33908 ft 402 kts 302°
2026-04-29 22:17 17.10894 -75.74839 33909 ft 404 kts 302°
2026-04-29 22:18 17.14504 -75.79328 33907 ft 402 kts 302°
2026-04-29 22:18 17.18093 -75.83795 33907 ft 402 kts 302°
2026-04-29 22:19 17.21693 -75.88278 33908 ft 402 kts 302°
2026-04-29 22:19 17.25302 -75.92773 33910 ft 403 kts 302°
2026-04-29 22:20 17.28906 -75.97266 33910 ft 402 kts 302°
2026-04-29 22:20 17.32527 -76.01784 33910 ft 404 kts 302°
2026-04-29 22:21 17.36136 -76.06290 33911 ft 404 kts 302°
2026-04-29 22:21 17.39735 -76.10785 33912 ft 404 kts 302°
2026-04-29 22:22 17.43351 -76.15305 33916 ft 404 kts 302°
2026-04-29 22:22 17.46933 -76.19785 33921 ft 403 kts 302°
2026-04-29 22:23 17.50540 -76.24302 33924 ft 403 kts 302°
2026-04-29 22:23 17.54131 -76.28800 33922 ft 402 kts 303°
2026-04-29 22:24 17.57747 -76.33330 33920 ft 403 kts 302°
2026-04-29 22:24 17.61341 -76.37839 33917 ft 403 kts 303°
2026-04-29 22:25 17.64932 -76.42344 33917 ft 402 kts 302°
2026-04-29 22:25 17.68507 -76.46834 33918 ft 402 kts 303°
2026-04-29 22:26 17.72096 -76.51345 33920 ft 401 kts 303°
2026-04-29 22:26 17.75724 -76.55907 33918 ft 402 kts 302°
2026-04-29 22:27 17.79286 -76.60389 33928 ft 403 kts 302°
2026-04-29 22:27 17.82906 -76.64948 33934 ft 401 kts 303°
2026-04-29 22:28 17.86500 -76.69482 33935 ft 403 kts 302°
2026-04-29 22:28 17.90060 -76.73971 33937 ft 401 kts 302°
2026-04-29 22:29 17.93357 -76.78597 33938 ft 395 kts 295°
2026-04-29 22:29 17.96064 -76.83607 33936 ft 393 kts 291°
2026-04-29 22:30 17.98601 -76.88711 33935 ft 393 kts 291°
2026-04-29 22:30 18.01110 -76.93778 33934 ft 393 kts 291°
2026-04-29 22:31 18.03636 -76.98856 33937 ft 395 kts 291°
2026-04-29 22:31 18.06205 -77.03999 33941 ft 395 kts 291°
2026-04-29 22:32 18.08755 -77.09087 33958 ft 394 kts 291°
2026-04-29 22:32 18.11293 -77.14166 33973 ft 394 kts 291°
2026-04-29 22:33 18.13833 -77.19259 33989 ft 393 kts 291°
2026-04-29 22:33 18.16342 -77.24285 34000 ft 391 kts 291°
2026-04-29 22:34 18.18850 -77.29321 34009 ft 392 kts 291°
2026-04-29 22:34 18.21368 -77.34377 34015 ft 392 kts 292°
2026-04-29 22:35 18.23901 -77.39465 34024 ft 392 kts 291°
2026-04-29 22:35 18.26418 -77.44527 34026 ft 394 kts 291°
2026-04-29 22:36 18.28943 -77.49603 34016 ft 391 kts 292°
2026-04-29 22:36 18.31465 -77.54687 34002 ft 392 kts 292°
2026-04-29 22:37 18.33980 -77.59756 33985 ft 392 kts 292°
2026-04-29 22:37 18.36499 -77.64841 33969 ft 392 kts 292°
2026-04-29 22:38 18.39014 -77.69915 33960 ft 392 kts 291°
2026-04-29 22:38 18.41531 -77.75004 33954 ft 393 kts 291°
2026-04-29 22:39 18.44031 -77.80060 33948 ft 393 kts 292°
2026-04-29 22:39 18.46535 -77.85124 33945 ft 394 kts 292°
2026-04-29 22:40 18.48993 -77.90187 33937 ft 392 kts 289°
2026-04-29 22:40 18.50829 -77.95386 33933 ft 387 kts 282°
2026-04-29 22:41 18.52181 -78.00783 33930 ft 387 kts 280°
2026-04-29 22:41 18.53456 -78.06255 33929 ft 386 kts 279°
2026-04-29 22:42 18.54739 -78.11733 33927 ft 386 kts 280°
2026-04-29 22:42 18.56030 -78.17205 33928 ft 386 kts 280°
2026-04-29 22:43 18.57332 -78.22702 33928 ft 387 kts 280°
2026-04-29 22:43 18.58628 -78.28169 33925 ft 387 kts 280°
2026-04-29 22:44 18.59936 -78.33706 33927 ft 387 kts 280°
2026-04-29 22:44 18.61235 -78.39197 33927 ft 386 kts 280°
2026-04-29 22:45 18.62531 -78.44677 33925 ft 386 kts 280°
2026-04-29 22:45 18.63826 -78.50166 33926 ft 389 kts 280°
2026-04-29 22:46 18.65134 -78.55718 33927 ft 389 kts 281°
2026-04-29 22:46 18.66458 -78.61372 33926 ft 406 kts 281°
2026-04-29 22:47 18.67827 -78.67205 33919 ft 409 kts 281°
2026-04-29 22:47 18.68497 -78.70041 33922 ft 394 kts 281°
2026-04-29 22:47 18.69146 -78.72783 33926 ft 382 kts 281°
2026-04-29 22:48 18.70421 -78.78232 33926 ft 390 kts 281°
2026-04-29 22:48 18.71544 -78.83054 33920 ft 392 kts 281°
2026-04-29 22:49 18.72838 -78.88601 33921 ft 390 kts 281°
2026-04-29 22:49 18.74183 -78.94370 33920 ft 391 kts 280°
2026-04-29 22:50 18.75558 -79.00273 33922 ft 392 kts 281°
2026-04-29 22:50 18.76862 -79.05875 33920 ft 392 kts 281°
2026-04-29 22:51 18.78149 -79.11423 33924 ft 392 kts 281°
2026-04-29 22:51 18.80077 -79.19760 33921 ft 391 kts 281°
2026-04-29 22:52 18.81359 -79.25311 33920 ft 392 kts 281°
2026-04-29 22:52 18.82618 -79.30768 33921 ft 394 kts 281°
2026-04-29 22:53 18.83899 -79.36322 33919 ft 392 kts 281°
2026-04-29 22:53 18.85186 -79.41915 33921 ft 394 kts 281°
2026-04-29 22:54 18.86476 -79.47531 33922 ft 394 kts 281°
2026-04-29 22:54 18.87767 -79.53155 33921 ft 394 kts 281°
2026-04-29 22:55 18.89024 -79.58646 33923 ft 395 kts 282°
2026-04-29 22:55 18.90317 -79.64298 33921 ft 395 kts 282°
2026-04-29 22:56 18.91597 -79.69902 33924 ft 396 kts 281°
2026-04-29 22:56 18.92893 -79.75577 33925 ft 398 kts 282°
2026-04-29 22:57 18.94177 -79.81214 33926 ft 397 kts 282°
2026-04-29 22:57 18.95470 -79.86905 33925 ft 397 kts 282°
2026-04-29 22:58 18.96757 -79.92570 33925 ft 397 kts 281°
2026-04-29 22:58 18.98039 -79.98222 33925 ft 396 kts 282°
2026-04-29 22:59 18.99318 -80.03869 33927 ft 398 kts 282°
2026-04-29 22:59 19.00600 -80.09541 33925 ft 398 kts 282°
2026-04-29 23:00 19.01884 -80.15228 33928 ft 399 kts 283°
2026-04-29 23:00 19.03163 -80.20900 33930 ft 399 kts 283°
2026-04-29 23:01 19.04450 -80.26610 33928 ft 400 kts 283°
2026-04-29 23:01 19.05728 -80.32294 33930 ft 402 kts 283°
2026-04-29 23:02 19.07006 -80.37996 33925 ft 401 kts 283°
2026-04-29 23:02 19.08296 -80.43759 33929 ft 404 kts 284°
2026-04-29 23:03 19.09589 -80.49536 33934 ft 404 kts 284°
2026-04-29 23:03 19.10876 -80.55296 33930 ft 402 kts 284°
2026-04-29 23:04 19.12166 -80.61086 33928 ft 407 kts 284°
2026-04-29 23:04 19.13465 -80.66920 33933 ft 413 kts 284°
2026-04-29 23:05 19.14804 -80.72931 33929 ft 432 kts 284°
2026-04-29 23:05 19.16216 -80.79284 33928 ft 451 kts 284°
2026-04-29 23:06 19.17667 -80.85825 33922 ft 459 kts 284°
2026-04-29 23:06 19.19142 -80.92491 33925 ft 473 kts 284°
2026-04-29 23:07 19.20651 -80.99314 33926 ft 483 kts 284°
2026-04-29 23:07 19.22187 -81.06280 33928 ft 487 kts 284°
2026-04-29 23:08 19.23715 -81.13251 33930 ft 488 kts 284°
2026-04-29 23:08 19.25241 -81.20216 33930 ft 488 kts 285°
2026-04-29 23:09 19.26773 -81.27216 33934 ft 489 kts 285°
2026-04-29 23:09 19.28279 -81.34114 33932 ft 468 kts 285°
2026-04-29 23:10 19.29001 -81.37436 33914 ft 452 kts 285°
2026-04-29 23:10 19.29717 -81.40614 33899 ft 452 kts 286°
2026-04-29 23:10 19.31248 -81.47015 33987 ft 462 kts 287°
2026-04-29 23:11 19.32837 -81.53544 33992 ft 462 kts 287°
2026-04-29 23:11 19.34378 -81.59911 33994 ft 463 kts 287°
2026-04-29 23:12 19.35951 -81.66466 34145 ft 462 kts 286°
2026-04-29 23:12 19.37528 -81.73062 33925 ft 464 kts 287°
2026-04-29 23:13 19.38315 -81.76364 33776 ft 464 kts 287°
2026-04-29 23:13 19.39104 -81.79682 33638 ft 463 kts 287°
2026-04-29 23:13 19.40673 -81.86293 33674 ft 464 kts 287°
2026-04-29 23:14 19.42247 -81.92931 33795 ft 466 kts 287°
2026-04-29 23:14 19.43810 -81.99545 33957 ft 455 kts 287°
2026-04-29 23:15 19.44559 -82.02737 33948 ft 440 kts 287°
2026-04-29 23:15 19.45290 -82.05849 33954 ft 439 kts 287°
2026-04-29 23:15 19.46782 -82.12179 33951 ft 452 kts 287°
2026-04-29 23:16 19.48318 -82.18720 33949 ft 464 kts 287°
2026-04-29 23:16 19.49886 -82.25427 33951 ft 467 kts 287°
2026-04-29 23:17 19.51431 -82.32068 33947 ft 466 kts 287°
2026-04-29 23:17 19.52974 -82.38705 33955 ft 467 kts 288°
2026-04-29 23:18 19.54523 -82.45370 33954 ft 466 kts 287°
2026-04-29 23:18 19.56051 -82.51970 33947 ft 466 kts 288°
2026-04-29 23:19 19.57591 -82.58633 33949 ft 467 kts 287°
2026-04-29 23:19 19.59132 -82.65313 33952 ft 466 kts 287°
2026-04-29 23:20 19.60667 -82.71963 33942 ft 468 kts 287°
2026-04-29 23:20 19.62205 -82.78637 33952 ft 466 kts 287°
2026-04-29 23:21 19.63740 -82.85310 33948 ft 469 kts 287°
2026-04-29 23:21 19.65283 -82.92032 33951 ft 468 kts 287°
2026-04-29 23:22 19.66794 -82.98630 33949 ft 467 kts 288°
2026-04-29 23:22 19.68302 -83.05233 33949 ft 466 kts 288°
2026-04-29 23:23 19.69811 -83.11859 33947 ft 467 kts 288°
2026-04-29 23:23 19.71335 -83.18542 33947 ft 469 kts 288°
2026-04-29 23:24 19.72868 -83.25275 33950 ft 468 kts 287°
2026-04-29 23:24 19.74390 -83.31974 33947 ft 468 kts 288°
2026-04-29 23:25 19.75909 -83.38680 33947 ft 468 kts 288°
2026-04-29 23:25 19.77418 -83.45362 33947 ft 468 kts 288°
2026-04-29 23:26 19.78928 -83.52052 33945 ft 468 kts 288°
2026-04-29 23:26 19.80441 -83.58769 33946 ft 470 kts 288°
2026-04-29 23:27 19.81957 -83.65515 33944 ft 467 kts 287°
2026-04-29 23:27 19.83463 -83.72244 33946 ft 468 kts 288°
2026-04-29 23:28 19.84977 -83.78992 33937 ft 469 kts 287°
2026-04-29 23:28 19.86480 -83.85692 33933 ft 468 kts 288°
2026-04-29 23:29 19.87983 -83.92418 33931 ft 467 kts 288°
2026-04-29 23:29 19.89475 -83.99115 33926 ft 467 kts 287°
2026-04-29 23:30 19.90969 -84.05821 33927 ft 468 kts 288°
2026-04-29 23:30 19.92459 -84.12540 33928 ft 466 kts 288°
2026-04-29 23:31 19.93942 -84.19242 33926 ft 468 kts 287°
2026-04-29 23:31 19.95433 -84.25988 33926 ft 467 kts 288°
2026-04-29 23:32 19.96910 -84.32684 33926 ft 467 kts 288°
2026-04-29 23:32 19.98388 -84.39399 33926 ft 467 kts 288°
2026-04-29 23:33 19.99860 -84.46093 33927 ft 466 kts 288°
2026-04-29 23:33 20.01326 -84.52766 33927 ft 467 kts 288°
2026-04-29 23:34 20.02811 -84.59534 33930 ft 467 kts 288°
2026-04-29 23:34 20.04273 -84.66223 33934 ft 464 kts 287°
2026-04-29 23:35 20.04989 -84.69519 33935 ft 453 kts 288°
2026-04-29 23:35 20.05679 -84.72714 33930 ft 437 kts 288°
2026-04-29 23:35 20.06349 -84.75828 33654 ft 427 kts 288°
2026-04-29 23:35 20.07009 -84.78874 33190 ft 422 kts 289°
2026-04-29 23:36 20.07672 -84.81926 32610 ft 420 kts 289°
2026-04-29 23:36 20.08327 -84.84930 31964 ft 420 kts 289°
2026-04-29 23:36 20.08985 -84.87935 31251 ft 423 kts 289°
2026-04-29 23:36 20.09657 -84.91000 30495 ft 426 kts 288°
2026-04-29 23:37 20.10327 -84.94065 29747 ft 428 kts 287°
2026-04-29 23:37 20.11002 -84.97172 29182 ft 426 kts 287°
2026-04-29 23:37 20.11667 -85.00246 28607 ft 424 kts 287°
2026-04-29 23:37 20.12318 -85.03265 28023 ft 423 kts 286°
2026-04-29 23:38 20.12978 -85.06328 27424 ft 421 kts 287°
2026-04-29 23:38 20.13629 -85.09348 26829 ft 419 kts 287°
2026-04-29 23:38 20.14270 -85.12323 26242 ft 418 kts 287°
2026-04-29 23:38 20.14922 -85.15357 25649 ft 416 kts 287°
2026-04-29 23:39 20.15564 -85.18346 25057 ft 414 kts 287°
2026-04-29 23:39 20.16202 -85.21317 24471 ft 413 kts 287°
2026-04-29 23:39 20.16841 -85.24290 23883 ft 411 kts 288°
2026-04-29 23:39 20.17474 -85.27232 23296 ft 409 kts 288°
2026-04-29 23:40 20.18098 -85.30140 22720 ft 407 kts 288°
2026-04-29 23:40 20.18732 -85.33073 22161 ft 404 kts 288°
2026-04-29 23:40 20.19463 -85.35934 21967 ft 389 kts 292°
2026-04-29 23:40 20.20297 -85.38611 21947 ft 373 kts 294°
2026-04-29 23:41 20.21168 -85.41164 21947 ft 367 kts 295°
2026-04-29 23:41 20.22085 -85.43771 21945 ft 373 kts 295°
2026-04-29 23:41 20.22982 -85.46334 21944 ft 372 kts 295°
2026-04-29 23:41 20.23891 -85.48962 21946 ft 371 kts 295°
2026-04-29 23:42 20.24770 -85.51534 21946 ft 372 kts 295°
2026-04-29 23:42 20.25647 -85.54129 21947 ft 371 kts 295°
2026-04-29 23:42 20.26516 -85.56713 21946 ft 371 kts 294°
2026-04-29 23:42 20.27387 -85.59315 21947 ft 371 kts 295°
2026-04-29 23:43 20.28248 -85.61889 21946 ft 372 kts 294°
2026-04-29 23:43 20.29131 -85.64532 21946 ft 372 kts 294°
2026-04-29 23:43 20.29987 -85.67102 21945 ft 372 kts 294°
2026-04-29 23:43 20.30857 -85.69712 21945 ft 374 kts 294°
2026-04-29 23:44 20.31721 -85.72309 21946 ft 373 kts 294°
2026-04-29 23:44 20.32589 -85.74925 21946 ft 373 kts 294°
2026-04-29 23:44 20.33454 -85.77529 21947 ft 374 kts 294°
2026-04-29 23:44 20.34330 -85.80165 21946 ft 373 kts 294°
2026-04-29 23:45 20.35188 -85.82751 21943 ft 371 kts 294°
2026-04-29 23:45 20.36050 -85.85352 21941 ft 372 kts 294°
2026-04-29 23:45 20.36907 -85.87934 21937 ft 371 kts 294°
2026-04-29 23:45 20.37763 -85.90516 21933 ft 370 kts 294°
2026-04-29 23:46 20.38627 -85.93122 21934 ft 372 kts 294°
2026-04-29 23:46 20.39485 -85.95707 21933 ft 372 kts 294°
2026-04-29 23:46 20.40342 -85.98297 21933 ft 371 kts 294°
2026-04-29 23:46 20.41198 -86.00885 21933 ft 369 kts 294°
2026-04-29 23:47 20.42038 -86.03437 21932 ft 357 kts 294°
2026-04-29 23:47 20.42840 -86.05889 21932 ft 343 kts 294°
2026-04-29 23:47 20.43618 -86.08260 21933 ft 343 kts 295°
2026-04-29 23:47 20.44425 -86.10694 21933 ft 347 kts 295°
2026-04-29 23:48 20.45227 -86.13123 21932 ft 348 kts 294°
2026-04-29 23:48 20.46021 -86.15533 21883 ft 344 kts 295°
2026-04-29 23:48 20.46804 -86.17918 21527 ft 341 kts 294°
2026-04-29 23:48 20.47595 -86.20319 21069 ft 340 kts 295°
2026-04-29 23:49 20.48382 -86.22704 20613 ft 340 kts 294°
2026-04-29 23:49 20.49156 -86.25051 20169 ft 339 kts 294°
2026-04-29 23:49 20.49943 -86.27444 19659 ft 341 kts 294°
2026-04-29 23:49 20.50724 -86.29826 19179 ft 341 kts 294°
2026-04-29 23:50 20.51504 -86.32208 18798 ft 338 kts 293°
2026-04-29 23:50 20.52267 -86.34548 18442 ft 334 kts 293°
2026-04-29 23:50 20.53808 -86.39269 17519 ft 334 kts 292°
2026-04-29 23:51 20.54572 -86.41604 17087 ft 334 kts 293°
2026-04-29 23:51 20.55337 -86.43943 16640 ft 334 kts 292°
2026-04-29 23:51 20.56100 -86.46280 16200 ft 334 kts 292°
2026-04-29 23:51 20.56860 -86.48608 15991 ft 327 kts 292°
2026-04-29 23:52 20.57605 -86.50897 15989 ft 329 kts 292°
2026-04-29 23:52 20.58366 -86.53226 15743 ft 333 kts 293°
2026-04-29 23:52 20.59144 -86.55602 15184 ft 337 kts 293°
2026-04-29 23:52 20.59898 -86.57916 14775 ft 335 kts 293°
2026-04-29 23:53 20.60674 -86.60297 14230 ft 339 kts 292°
2026-04-29 23:53 20.61521 -86.62649 13528 ft 345 kts 298°
2026-04-29 23:53 20.62807 -86.64803 12770 ft 346 kts 318°
2026-04-29 23:53 20.64803 -86.66235 12038 ft 344 kts 340°
2026-04-29 23:54 20.67075 -86.66975 11713 ft 332 kts 350°
2026-04-29 23:54 20.69284 -86.67485 11867 ft 308 kts 352°
2026-04-29 23:54 20.71281 -86.67942 12409 ft 299 kts 352°
2026-04-29 23:54 20.73379 -86.68449 12125 ft 306 kts 350°
2026-04-29 23:55 20.75421 -86.68999 12009 ft 298 kts 349°
2026-04-29 23:55 20.77435 -86.69570 11998 ft 293 kts 349°
2026-04-29 23:55 20.79388 -86.70135 11905 ft 291 kts 348°
2026-04-29 23:55 20.81356 -86.70750 11345 ft 301 kts 343°
2026-04-29 23:56 20.83236 -86.71819 10703 ft 314 kts 324°
2026-04-29 23:56 20.84707 -86.73601 10127 ft 324 kts 307°
2026-04-29 23:56 20.85914 -86.75662 9554 ft 330 kts 302°
2026-04-29 23:56 20.87079 -86.77772 8974 ft 333 kts 302°
2026-04-29 23:57 20.88306 -86.79916 8386 ft 335 kts 304°
2026-04-29 23:57 20.89569 -86.82015 7864 ft 336 kts 305°
2026-04-29 23:57 20.90864 -86.84103 7330 ft 337 kts 306°
2026-04-29 23:57 20.92170 -86.86182 6809 ft 337 kts 306°
2026-04-29 23:58 20.93489 -86.88275 6280 ft 337 kts 305°
2026-04-29 23:58 20.94791 -86.90346 5772 ft 337 kts 305°
2026-04-29 23:58 20.96092 -86.92420 5419 ft 329 kts 305°
2026-04-29 23:58 20.97345 -86.94422 5304 ft 316 kts 305°
2026-04-29 23:59 20.98569 -86.96375 4745 ft 319 kts 304°
2026-04-29 23:59 20.99813 -86.98363 4418 ft 314 kts 304°
2026-04-29 23:59 21.01014 -87.00284 4105 ft 309 kts 304°
2026-04-29 23:59 21.02186 -87.02159 3746 ft 306 kts 304°
2026-04-30 00:00 21.03371 -87.04054 3415 ft 303 kts 304°
2026-04-30 00:00 21.04535 -87.05917 3085 ft 299 kts 304°
2026-04-30 00:00 21.05692 -87.07769 2738 ft 296 kts 304°
2026-04-30 00:00 21.06825 -87.09583 2459 ft 292 kts 304°
2026-04-30 00:01 21.07929 -87.11353 2187 ft 287 kts 304°
2026-04-30 00:01 21.09052 -87.13155 1934 ft 280 kts 304°
2026-04-30 00:01 21.10116 -87.14867 2161 ft 273 kts 304°
2026-04-30 00:01 21.11177 -87.16576 2040 ft 269 kts 304°
2026-04-30 00:02 21.12298 -87.18162 2010 ft 265 kts 315°
2026-04-30 00:02 21.13774 -87.19256 1987 ft 251 kts 345°
2026-04-30 00:02 21.15431 -87.19370 1996 ft 228 kts 15°
2026-04-30 00:02 21.16875 -87.18840 1998 ft 211 kts 31°
2026-04-30 00:03 21.18103 -87.18012 2001 ft 206 kts 48°
2026-04-30 00:03 21.18897 -87.16763 2009 ft 201 kts 72°
2026-04-30 00:03 21.19235 -87.15327 2006 ft 198 kts 85°
2026-04-30 00:03 21.19227 -87.13878 2003 ft 196 kts 103°
2026-04-30 00:04 21.18693 -87.12523 2012 ft 196 kts 123°
2026-04-30 00:04 21.17821 -87.11395 2004 ft 196 kts 136°
2026-04-30 00:04 21.16633 -87.10648 2002 ft 199 kts 163°
2026-04-30 00:04 21.15263 -87.10335 2004 ft 199 kts 161°
2026-04-30 00:05 21.13986 -87.09809 2004 ft 197 kts 147°
2026-04-30 00:05 21.12995 -87.08797 2009 ft 196 kts 122°
2026-04-30 00:05 21.12415 -87.07488 2003 ft 195 kts 109°
2026-04-30 00:05 21.12100 -87.06078 2008 ft 191 kts 101°
2026-04-30 00:06 21.11907 -87.04692 2010 ft 185 kts 99°
2026-04-30 00:06 21.11738 -87.03331 2014 ft 184 kts 99°
2026-04-30 00:06 21.11562 -87.01957 2011 ft 184 kts 99°
2026-04-30 00:06 21.11388 -87.00602 2010 ft 185 kts 100°
2026-04-30 00:07 21.11026 -86.99306 1996 ft 183 kts 122°
2026-04-30 00:07 21.10179 -86.98286 2006 ft 184 kts 131°
2026-04-30 00:07 21.09416 -86.97178 1819 ft 180 kts 120°
2026-04-30 00:07 21.08809 -86.96057 1569 ft 170 kts 120°
2026-04-30 00:08 21.08199 -86.94999 1345 ft 159 kts 126°
2026-04-30 00:08 21.07527 -86.94103 1163 ft 154 kts 127°
2026-04-30 00:08 21.06937 -86.93161 982 ft 147 kts 120°
2026-04-30 00:08 21.06480 -86.92226 848 ft 135 kts 119°
2026-04-30 00:09 21.05984 -86.91384 586 ft 129 kts 126°
2026-04-30 00:09 21.05505 -86.90635 383 ft 119 kts 124°
2026-04-30 00:09 21.05036 -86.89894 263 ft 117 kts 125°
2026-04-30 00:09 21.04579 -86.89166 80 ft 117 kts 124°
2026-04-30 00:10 21.04139 -86.88463 33 ft 98 kts 125°
2026-04-30 00:10 21.03914 -86.88112 27 ft 28 kts 123°
2026-04-30 00:10 21.03859 -86.87964 26 ft 16 kts 94°
2026-04-30 00:10 21.03853 -86.87882 26 ft 4 kts 94°
2026-04-30 00:11 21.03852 -86.87865 26 ft 5 kts 94°
2026-04-30 00:11 21.03844 -86.87733 26 ft 24 kts 94°
2026-04-30 00:11 21.03843 -86.87634 26 ft 9 kts
2026-04-30 00:11 21.03894 -86.87635 26 ft 0 kts 359°